Regional Weather Roundup
Issued by NWS Kansas City/Pleasant Hill, MO

Home | Current Version | Previous Version | Text Only | Print | Product List | Glossary On
Versions: 1 2 3 4 5 6 7 8 9 10 11 12 13 14 15 16 17 18 19 20 21 22 23 24 25 26 27 28
000
ASUS43 KEAX 211210
RWREAX

WEATHER ROUNDUP FOR EASTERN KANSAS AND NORTHWEST MISSOURI
NATIONAL WEATHER SERVICE KANSAS CITY/PLEASANT HILL MO
600 AM CST TUE FEB 21 2017

KSZ040-057-103>105-MOZ028-029-037-043-211300-
...KANSAS CITY METROPOLITAN AREA...

CITY           SKY/WX    TMP DP  RH WIND       PRES   REMARKS
K.C. INTL      CLOUDY    48  44  86 NE7       29.95S
6HR MIN TEMP:  47; 6HR MAX TEMP:  56;

K.C. DOWNTOWN  PTCLDY    51  45  79 VRB5      29.95S
6HR MIN TEMP:  51; 6HR MAX TEMP:  59;

LEES SUMMIT    CLOUDY    51  47  86 N9        29.95S
6HR MIN TEMP:  51; 6HR MAX TEMP:  58;

OLATHE - IXD   PTCLDY    48  44  86 NE8       29.96R
6HR MIN TEMP:  46; 6HR MAX TEMP:  54;

OLATHE - OJC   PTCLDY    49  46  90 NE8       29.95R
6HR MIN TEMP:  49; 6HR MAX TEMP:  56;

LAWRENCE       CLEAR     47  44  90 CALM      29.96S

$$

MOZ001>008-011>017-020>025-030>033-038>040-044>046-053-054-211300-
...NORTHERN AND CENTRAL MISSOURI...

CITY           SKY/WX    TMP DP  RH WIND       PRES   REMARKS
ST. JOSEPH     FOG       35  35 100 NW3       29.96F VSB 1
6HR MIN TEMP:  34; 6HR MAX TEMP:  54;

WARRENSBURG    CLOUDY    50  50 100 N8        29.94R
WHITEMAN AFB   PTCLDY    52  52 100 N7        29.92R
6HR MIN TEMP:  51; 6HR MAX TEMP:  57;

CLINTON        CLOUDY    50  50 100 CALM      29.92S FOG
SEDALIA        PTCLDY    53  52  96 N3        29.93R
6HR MIN TEMP:  52; 6HR MAX TEMP:  60;

WARSAW         NOT AVBL
CHILLICOTHE      N/A     50  45  83 N7        29.96F
6HR MIN TEMP:  50; 6HR MAX TEMP:  60;

KIRKSVILLE     CLOUDY    49  44  83 N13       29.95F
6HR MIN TEMP:  49; 6HR MAX TEMP:  59;


$$

MOZ041-047>049-056>058-063>065-088>090-097-211300-
...EASTERN AND SOUTHERN MISSOURI...

CITY           SKY/WX    TMP DP  RH WIND       PRES   REMARKS
ST. LOUIS INTL LGT RAIN  62  59  90 CALM      29.93S FOG
6HR MIN TEMP:  61; 6HR MAX TEMP:  66; 6HR PCP:  0.37;

SPIRIT OF STL  LGT RAIN  58  58 100 E3        29.91F VSB 1
COLUMBIA       CLOUDY    55  55 100 NE7       29.91F FOG
JEFFERSON CITY CLOUDY    56  55  97 NW5       29.91S FOG
ROLLA          LGT RAIN  56  56 100 E6        29.90F VSB 1/4
OSAGE BEACH    LGT RAIN  56  55  97 NW3       29.92R
SPRINGFIELD    CLOUDY    55  54  96 NW5       29.90R
BRANSON        CLOUDY    55  55 100 E7        29.88F
JOPLIN         CLOUDY    50  50 100 CALM      29.92S FOG
WEST PLAINS    LGT RAIN  57  55  93 NE12      29.88F FOG

$$

IAZ060-094-KSZ022-034>040-054-083-096-NEZ052-066-093-211300-
...KANSAS...SOUTHEAST NEBRASKA AND IOWA...

CITY           SKY/WX    TMP DP  RH WIND       PRES   REMARKS
TOPEKA         CLEAR     46  40  79 NW6       29.96F
6HR MIN TEMP:  44; 6HR MAX TEMP:  53;

MANHATTAN      CLEAR     32  31  96 CALM      30.00R
EMPORIA        CLEAR     43  40  89 NW3       29.96F
CHANUTE        CLEAR     47  44  90 N7        29.95R
WICHITA        CLEAR     39  37  92 NW9       30.00S WCI  33
OMAHA          FOG       36  32  85 CALM      29.97R VSB 1/4
LINCOLN        CLEAR     29  27  92 CALM      30.00R
FALLS CITY     CLEAR     36  36 100 W3        29.98R
LAMONI         CLOUDY    42  40  92 NE6       29.96S
DES MOINES     CLEAR     39  37  92 S6        29.95F WCI  35

$$





USA.gov is the U.S. government's official web portal to all federal, state and local government web resources and services.